Iowa City, IA

1:31 PM CDT on May 27, 2017 (GMT -0500)
Iowa City Municipal

Weather History for KIOW - November, 2011

Change the Weather History Date:

Tuesday, November 8, 2011

  Actual Average Record
Temperature  
Mean Temperature 44 °F 43 °F  
Max Temperature 47 °F 52 °F 78 °F (1999)
Min Temperature 41 °F 34 °F 3 °F (1991)
Degree Days  
Heating Degree Days 21 22  
Month to date heating degree days 150 164  
Since 1 July heating degree days 667 689  
Cooling Degree Days 0 0  
Month to date cooling degree days 0 0  
Year to date cooling degree days 1092 912  
Moisture  
Dew Point 40 °F    
Average Humidity 84    
Maximum Humidity 96    
Minimum Humidity 71    
Precipitation  
Precipitation 0.54 in 0.08 in 0.54 in (2011)
Month to date precipitation 1.97 0.75  
Year to date precipitation 31.25 33.16  
Sea Level Pressure  
Sea Level Pressure 30.01 in    
Wind  
Wind Speed 13 mph (NE)    
Max Wind Speed 21 mph    
Max Gust Speed 28 mph    
Visibility 7 miles    
Events Rain    
T = Trace of Precipitation, MM = Missing Value Source: NWS Daily Summary

Daily Weather History Graph

Daily Weather History Graph

Search for Another Location

Airport or City:

Trip Planner

Search our weather history database for the weather conditions in past years. The results will help you decide how hot, cold, wet, or windy it might be!

Date:

Astronomy

Nov. 08, 2011 Rise Set
Actual Time 6:46 AM CST 4:52 PM CST
Civil Twilight 6:17 AM CST 5:22 PM CST
Nautical Twilight 5:43 AM CST 5:55 PM CST
Astronomical Twilight 5:11 AM CST 6:27 PM CST
Moon 3:33 PM CST (11/8) 4:44 AM CST (11/8)
Length of Visible Light 11h 05m
Length of Day
10h 06m
Waxing Gibbous, 96% of the Moon is Illuminated
Nov 8
Waxing Gibbous
Nov 10
Full
Nov 18
Last Quarter
Nov 25
New
Dec 2
First Quarter

Hourly Weather History & Observations

Time (CST) Temp. Windchill Dew Point Humidity Pressure Visibility Wind Dir Wind Speed Gust Speed Precip Events Conditions
12:52 AM 46.0 °F 43.9 °F 39.9 °F 79% 30.14 in 8.0 mi East 4.6 mph - 0.04 in Rain Light Rain
1:52 AM 45.0 °F 37.4 °F 39.9 °F 82% 30.06 in 7.0 mi NE 18.4 mph 25.3 mph 0.07 in Rain Light Rain
2:52 AM 45.0 °F 37.4 °F 39.9 °F 82% 30.05 in 5.0 mi NE 18.4 mph 23.0 mph 0.07 in Rain Light Rain
3:52 AM 44.1 °F 37.7 °F 41.0 °F 89% 30.06 in 6.0 mi NE 12.7 mph 17.3 mph 0.07 in Rain Light Rain
4:52 AM 43.0 °F 36.4 °F 41.0 °F 93% 30.03 in 10.0 mi NE 12.7 mph - 0.01 in Rain Light Rain
5:06 AM 42.8 °F 37.0 °F 41.0 °F 93% 30.04 in 10.0 mi NNE 10.4 mph 20.7 mph 0.00 in Rain Light Rain
5:40 AM 42.8 °F 35.1 °F 41.0 °F 93% 30.02 in 8.0 mi NE 16.1 mph - 0.01 in Rain Light Rain
5:52 AM 43.0 °F 35.7 °F 39.9 °F 89% 30.02 in 10.0 mi NE 15.0 mph 21.9 mph 0.01 in Rain Light Rain
6:08 AM 42.8 °F 35.4 °F 39.2 °F 87% 30.01 in 9.0 mi NE 15.0 mph 23.0 mph 0.00 in Rain Light Rain
6:52 AM 43.0 °F 36.0 °F 39.9 °F 89% 30.03 in 10.0 mi NNE 13.8 mph 19.6 mph 0.01 in   Overcast
7:11 AM 42.8 °F 35.8 °F 39.2 °F 87% 30.02 in 10.0 mi North 13.8 mph - N/A   Overcast
7:52 AM 42.1 °F 33.9 °F 39.0 °F 89% 30.04 in 5.0 mi NNE 17.3 mph 25.3 mph N/A   Overcast
8:24 AM 42.8 °F 35.1 °F 39.2 °F 87% 30.03 in 2.5 mi NNE 16.1 mph 23.0 mph N/A   Overcast
8:52 AM 41.0 °F 33.5 °F 39.0 °F 93% 30.04 in 2.5 mi NNE 13.8 mph 21.9 mph 0.00 in Rain Light Rain
9:01 AM 41.0 °F 33.1 °F 39.2 °F 93% 30.03 in 3.0 mi NNE 15.0 mph 24.2 mph 0.00 in Rain Light Rain
9:28 AM 41.0 °F 32.5 °F 39.2 °F 93% 30.03 in 6.0 mi NNE 17.3 mph 26.5 mph 0.00 in   Overcast
9:52 AM 41.0 °F 32.5 °F 39.0 °F 93% 30.04 in 10.0 mi NE 17.3 mph 24.2 mph 0.00 in   Overcast
10:52 AM 42.1 °F 34.9 °F 39.0 °F 89% 30.04 in 10.0 mi NNE 13.8 mph - N/A   Overcast
11:52 AM 42.1 °F 35.7 °F 39.0 °F 89% 30.02 in 10.0 mi NE 11.5 mph - 0.02 in   Overcast
12:52 PM 43.0 °F 37.2 °F 39.0 °F 86% 30.03 in 10.0 mi NNE 10.4 mph - N/A   Overcast
1:52 PM 43.0 °F 37.7 °F 39.9 °F 89% 30.02 in 10.0 mi NE 9.2 mph 18.4 mph 0.00 in   Overcast
2:52 PM 43.0 °F 35.7 °F 39.9 °F 89% 30.01 in 10.0 mi NE 15.0 mph 20.7 mph N/A   Overcast
3:52 PM 43.0 °F 36.0 °F 41.0 °F 93% 30.00 in 9.0 mi NNE 13.8 mph - 0.00 in   Overcast
4:21 PM 42.8 °F 36.6 °F 41.0 °F 93% 30.00 in 2.5 mi NE 11.5 mph - 0.02 in Rain Light Rain
4:42 PM 42.8 °F 35.1 °F 41.0 °F 93% 29.99 in 4.0 mi NNE 16.1 mph - 0.04 in Rain Light Rain
5:52 PM 43.0 °F 37.2 °F 41.0 °F 93% 30.02 in 4.0 mi NE 10.4 mph - 0.02 in Rain Light Rain
6:52 PM 43.0 °F 37.7 °F 41.0 °F 93% 30.02 in 7.0 mi NNE 9.2 mph - 0.06 in Rain Light Rain
7:52 PM 43.0 °F 37.2 °F 41.0 °F 93% 30.01 in 7.0 mi NE 10.4 mph 20.7 mph 0.01 in Rain Light Rain
8:52 PM 43.0 °F 36.8 °F 41.0 °F 93% 29.99 in 4.0 mi NNE 11.5 mph - 0.02 in Rain Light Rain
9:52 PM 42.1 °F 35.2 °F 39.9 °F 92% 29.96 in 4.0 mi NE 12.7 mph 18.4 mph 0.02 in Rain Light Rain
11:27 PM 42.8 °F 35.1 °F 39.2 °F 87% 29.89 in 5.0 mi NNE 16.1 mph 23.0 mph 0.04 in Rain Light Rain
11:41 PM 42.8 °F 35.4 °F 39.2 °F 87% 29.88 in 5.0 mi NNE 15.0 mph - 0.04 in Rain Light Rain
11:50 PM 42.8 °F 34.5 °F 39.2 °F 87% 29.87 in 5.0 mi NNE 18.4 mph - 0.05 in Rain Rain